TimeEST,TemperatureF,Dew PointF,Humidity,Sea Level PressureIn,VisibilityMPH,Wind Direction,Wind SpeedMPH,Gust SpeedMPH,PrecipitationIn,Events,Conditions,WindDirDegrees,DateUTC
12:15 AM,23.4,18.3,81,30.27,10.0,Calm,Calm,-,N/A,,Clear,0,2013-01-23 05:15:00
12:35 AM,22.6,18.1,83,30.27,10.0,Calm,Calm,-,N/A,,Clear,0,2013-01-23 05:35:00
12:55 AM,22.5,17.8,82,30.28,10.0,Calm,Calm,-,N/A,,Clear,0,2013-01-23 05:55:00
1:15 AM,22.8,18.3,83,30.28,10.0,Calm,Calm,-,N/A,,Clear,0,2013-01-23 06:15:00
1:35 AM,21.9,17.6,83,30.28,10.0,Calm,Calm,-,N/A,,Clear,0,2013-01-23 06:35:00
1:55 AM,22.3,18.3,85,30.29,10.0,Calm,Calm,-,N/A,,Clear,0,2013-01-23 06:55:00
2:15 AM,21.7,17.8,85,30.29,10.0,Calm,Calm,-,N/A,,Clear,0,2013-01-23 07:15:00
2:35 AM,21.0,16.9,84,30.30,10.0,Calm,Calm,-,N/A,,Clear,0,2013-01-23 07:35:00
2:55 AM,21.4,17.1,83,30.31,10.0,Calm,Calm,-,N/A,,Clear,0,2013-01-23 07:55:00
3:15 AM,21.0,17.6,87,30.30,10.0,Calm,Calm,-,N/A,,Clear,0,2013-01-23 08:15:00
3:35 AM,20.1,16.5,86,30.30,10.0,Calm,Calm,-,N/A,,Clear,0,2013-01-23 08:35:00
3:55 AM,20.3,16.9,87,30.31,10.0,Calm,Calm,-,N/A,,Clear,0,2013-01-23 08:55:00
4:15 AM,19.8,16.3,87,30.31,10.0,Calm,Calm,-,N/A,,Clear,0,2013-01-23 09:15:00
4:35 AM,19.6,16.0,86,30.31,10.0,Calm,Calm,-,N/A,,Clear,0,2013-01-23 09:35:00
4:55 AM,19.0,15.6,87,30.31,10.0,Calm,Calm,-,N/A,,Clear,0,2013-01-23 09:55:00
5:15 AM,18.5,15.4,88,30.32,10.0,Calm,Calm,-,N/A,,Clear,0,2013-01-23 10:15:00
5:35 AM,18.5,15.6,89,30.32,10.0,Calm,Calm,-,N/A,,Clear,0,2013-01-23 10:35:00
5:55 AM,18.3,15.4,89,30.33,10.0,Calm,Calm,-,N/A,,Clear,0,2013-01-23 10:55:00
6:15 AM,18.5,15.1,86,30.33,10.0,Calm,Calm,-,N/A,,Clear,0,2013-01-23 11:15:00
6:35 AM,18.1,14.9,87,30.34,10.0,Calm,Calm,-,N/A,,Clear,0,2013-01-23 11:35:00
6:55 AM,18.9,15.8,88,30.34,10.0,Calm,Calm,-,N/A,,Clear,0,2013-01-23 11:55:00
7:15 AM,17.6,14.7,88,30.34,10.0,Calm,Calm,-,N/A,,Clear,0,2013-01-23 12:15:00
7:35 AM,17.8,14.5,87,30.35,10.0,Calm,Calm,-,N/A,,Clear,0,2013-01-23 12:35:00
7:55 AM,19.2,16.0,87,30.36,10.0,Calm,Calm,-,N/A,,Clear,0,2013-01-23 12:55:00
8:15 AM,21.0,17.4,86,30.36,10.0,Calm,Calm,-,N/A,,Clear,0,2013-01-23 13:15:00
8:55 AM,24.4,20.3,84,30.37,10.0,Calm,Calm,-,N/A,,Clear,0,2013-01-23 13:55:00
9:15 AM,27.3,19.2,72,30.38,10.0,Calm,Calm,-,N/A,,Clear,0,2013-01-23 14:15:00
9:35 AM,30.2,15.3,54,30.37,10.0,Calm,Calm,-,N/A,,Clear,0,2013-01-23 14:35:00
9:55 AM,32.0,3.2,30,30.38,10.0,ESE,3.5,-,N/A,,Clear,110,2013-01-23 14:55:00
10:15 AM,33.1,1.9,27,30.39,10.0,SSE,3.5,-,N/A,,Clear,150,2013-01-23 15:15:00
10:35 AM,34.5,1.6,25,30.39,10.0,Calm,Calm,-,N/A,,Clear,0,2013-01-23 15:35:00
10:55 AM,36.1,1.0,23,30.37,10.0,SE,3.5,-,N/A,,Clear,140,2013-01-23 15:55:00
11:15 AM,36.3,0.9,22,30.37,10.0,South,4.6,-,N/A,,Clear,170,2013-01-23 16:15:00
11:35 AM,37.4,1.0,22,30.36,10.0,Calm,Calm,-,N/A,,Clear,0,2013-01-23 16:35:00
11:55 AM,38.3,1.4,21,30.34,10.0,South,3.5,-,N/A,,Clear,170,2013-01-23 16:55:00
12:15 PM,39.2,0.5,20,30.33,10.0,Calm,Calm,-,N/A,,Clear,0,2013-01-23 17:15:00
12:35 PM,40.1,2.1,20,30.31,10.0,SE,3.5,-,N/A,,Clear,140,2013-01-23 17:35:00
12:55 PM,41.2,4.5,22,30.30,10.0,SSW,8.1,-,N/A,,Clear,210,2013-01-23 17:55:00
1:15 PM,42.1,4.1,21,30.28,10.0,SSW,5.8,-,N/A,,Clear,200,2013-01-23 18:15:00
1:35 PM,42.4,4.6,21,30.26,10.0,SSE,3.5,-,N/A,,Clear,160,2013-01-23 18:35:00
1:55 PM,42.8,6.1,22,30.25,10.0,South,8.1,-,N/A,,Clear,180,2013-01-23 18:55:00
2:15 PM,43.2,6.4,22,30.24,10.0,WSW,3.5,-,N/A,,Clear,240,2013-01-23 19:15:00
2:35 PM,43.9,8.2,23,30.24,10.0,West,5.8,-,N/A,,Clear,260,2013-01-23 19:35:00
2:55 PM,44.4,8.8,23,30.24,10.0,SW,5.8,-,N/A,,Clear,220,2013-01-23 19:55:00
3:15 PM,44.6,9.1,24,30.23,10.0,SSW,5.8,-,N/A,,Clear,200,2013-01-23 20:15:00
3:35 PM,45.9,11.5,25,30.23,10.0,West,3.5,-,N/A,,Clear,260,2013-01-23 20:35:00
3:55 PM,45.7,10.9,24,30.22,10.0,SSW,3.5,-,N/A,,Clear,210,2013-01-23 20:55:00
4:15 PM,45.9,12.2,26,30.21,10.0,SW,5.8,-,N/A,,Clear,220,2013-01-23 21:15:00
4:35 PM,45.7,13.1,27,30.21,10.0,Calm,Calm,-,N/A,,Clear,0,2013-01-23 21:35:00
4:55 PM,45.1,13.3,28,30.21,10.0,SSW,4.6,-,N/A,,Clear,210,2013-01-23 21:55:00
5:15 PM,44.8,13.8,29,30.20,10.0,Calm,Calm,-,N/A,,Clear,0,2013-01-23 22:15:00
5:35 PM,43.5,14.7,31,30.19,10.0,Calm,Calm,-,N/A,,Clear,0,2013-01-23 22:35:00
5:55 PM,40.8,17.2,39,30.20,10.0,Calm,Calm,-,N/A,,Clear,0,2013-01-23 22:55:00
6:15 PM,36.9,19.8,50,30.20,10.0,Calm,Calm,-,N/A,,Clear,0,2013-01-23 23:15:00
6:35 PM,34.2,20.5,57,30.20,10.0,Calm,Calm,-,N/A,,Clear,0,2013-01-23 23:35:00
6:55 PM,32.9,20.3,60,30.18,10.0,SE,3.5,-,N/A,,Clear,140,2013-01-23 23:55:00
7:15 PM,32.7,20.5,61,30.18,10.0,Calm,Calm,-,N/A,,Clear,0,2013-01-24 00:15:00
7:35 PM,32.9,20.5,60,30.16,10.0,SSE,3.5,-,N/A,,Clear,150,2013-01-24 00:35:00
7:55 PM,34.9,18.5,51,30.16,10.0,SSE,3.5,-,N/A,,Clear,150,2013-01-24 00:55:00
8:15 PM,36.3,16.7,45,30.15,10.0,Calm,Calm,-,N/A,,Clear,0,2013-01-24 01:15:00
8:35 PM,35.6,16.9,47,30.15,10.0,Calm,Calm,-,N/A,,Clear,0,2013-01-24 01:35:00
8:55 PM,38.7,15.8,39,30.14,10.0,South,5.8,-,N/A,,Clear,170,2013-01-24 01:55:00
9:15 PM,39.2,15.6,38,30.14,10.0,South,3.5,-,N/A,,Clear,180,2013-01-24 02:15:00
9:35 PM,39.2,16.3,40,30.13,10.0,South,6.9,-,N/A,,Clear,180,2013-01-24 02:35:00
9:55 PM,39.2,16.9,40,30.12,10.0,South,6.9,-,N/A,,Clear,170,2013-01-24 02:55:00
10:15 PM,39.2,17.6,42,30.11,10.0,South,8.1,-,N/A,,Clear,180,2013-01-24 03:15:00
10:35 PM,39.6,18.5,43,30.11,10.0,SSW,4.6,-,N/A,,Clear,200,2013-01-24 03:35:00
10:55 PM,39.7,19.9,45,30.10,10.0,South,5.8,-,N/A,,Clear,180,2013-01-24 03:55:00
11:15 PM,39.6,21.2,48,30.08,10.0,South,4.6,-,N/A,,Clear,180,2013-01-24 04:15:00
11:35 PM,39.7,22.5,50,30.08,10.0,South,4.6,-,N/A,,Clear,190,2013-01-24 04:35:00
11:55 PM,40.8,24.3,52,30.07,10.0,SSW,6.9,-,N/A,,Clear,200,2013-01-24 04:55:00